Location: Toronto
(43.6672°N, 79.4170°W)
Time: 06:42:41
(UTC-04:00)

ISS - Visible Passes

Search period start: 23 May 2017 00:00
Search period end: 02 June 2017 00:00
Orbit: 402 x 409 km, 51.6° (Epoch: 23 May)

Date Brightness Start Highest point End Pass type
(mag) Time Alt. Az. Time Alt. Az. Time Alt. Az.
23 May -1.2 01:25:15 10° WNW 01:27:52 21° N 01:30:28 10° NE visible
23 May -1.3 03:02:22 10° NW 03:05:07 24° NNE 03:07:52 10° ENE visible
23 May -3.8 04:38:41 10° WNW 04:41:59 83° NNE 04:45:15 10° ESE visible
23 May -1.9 21:21:17 10° SSE 21:22:44 12° SE 21:24:12 10° ESE visible
23 May -3.9 22:55:29 10° WSW 22:58:47 89° NNW 23:02:05 10° ENE visible
24 May -1.4 00:32:50 10° WNW 00:35:36 24° NNW 00:38:24 10° NE visible
24 May -1.1 02:10:17 10° NW 02:12:53 21° N 02:15:27 10° ENE visible
24 May -2.9 03:46:41 10° NW 03:49:54 50° NNE 03:53:06 10° ESE visible
24 May -3.7 22:03:34 10° SW 22:06:46 50° SE 22:09:59 10° ENE visible
24 May -1.9 23:40:24 10° W 23:43:24 31° NNW 23:46:24 10° NE visible
25 May -1.0 01:18:05 10° NW 01:20:36 20° N 01:23:06 10° NE visible
25 May -2.1 02:54:42 10° NW 02:57:46 34° NNE 03:00:47 10° E visible
25 May -3.5 04:31:10 10° WNW 04:34:19 43° SW 04:37:25 10° SSE visible
25 May -2.6 22:48:02 10° W 22:51:13 45° NNW 22:54:25 10° NE visible
26 May -1.1 00:25:44 10° WNW 00:28:17 20° N 00:30:51 10° NE visible
26 May -1.5 02:02:42 10° NW 02:05:32 26° NNE 02:08:21 10° ENE visible
26 May -4.0 03:39:01 10° WNW 03:42:19 80° SSW 03:45:35 10° SE visible
26 May -3.6 21:55:48 10° WSW 21:59:05 73° NNW 22:02:24 10° NE visible
26 May -1.2 23:33:17 10° WNW 23:36:00 23° N 23:38:43 10° NE visible
27 May -1.2 01:10:37 10° NW 01:13:16 22° N 01:15:54 10° ENE visible
27 May -3.3 02:46:58 10° NW 02:50:14 60° NNE 02:51:10 39° E visible
27 May -2.0 04:27:43 16° SSW 04:27:43 16° SSW 04:28:51 10° S visible
27 May -1.6 22:40:49 10° W 22:43:43 28° NNW 22:46:39 10° NE visible
28 May -1.1 00:18:25 10° NW 00:20:57 20° N 00:23:28 10° NE visible
28 May -2.2 01:54:57 10° NW 01:57:31 35° N 01:57:31 35° N visible
28 May -2.2 21:48:22 10° W 21:51:29 38° NNW 21:54:37 10° NE visible
28 May -1.1 23:26:04 10° NW 23:28:37 20° N 23:31:08 10° NE visible
29 May -1.8 01:02:54 10° NW 01:05:50 28° NNE 01:06:16 27° NNE visible
29 May -1.2 22:33:37 10° WNW 22:36:16 22° N 22:38:55 10° NE visible
30 May -1.4 00:10:49 10° NW 00:13:32 23° N 00:15:25 15° NE visible
30 May -1.3 01:47:08 10° NW 01:48:02 17° NW 01:48:02 17° NW visible
30 May -1.5 21:41:06 10° WNW 21:43:57 26° NNW 21:46:47 10° NE visible
30 May -1.2 23:18:37 10° NW 23:21:12 20° N 23:23:45 10° ENE visible
31 May -2.2 00:55:04 10° NW 00:57:20 34° NNW 00:57:20 34° NNW visible
31 May -1.1 22:26:18 10° NW 22:28:48 20° N 22:31:20 10° NE visible
01 Jun -2.2 00:03:00 10° NW 00:06:00 31° NNE 00:06:43 28° NE visible
01 Jun -1.2 21:33:50 10° WNW 21:36:26 21° N 21:39:02 10° NE visible
01 Jun -1.6 23:10:54 10° NW 23:13:41 24° NNE 23:16:09 12° ENE visible
